Dewpoint
22 22 35 29 25 22 25 20 22 21 28 31 34 40 32 29 25 23 32 41 43 45 42 48 51 53 54 57 58 60 60 59 58 59 59 59 60 59 59 59 59 59 57 58 60 60 59 61 60 61 61 61 60 61 62 60 60 60 60 64 63 64 64
23 29 26 27 26 27 21 21 21 29 32 27 26 18 25 24 16 21 37 38 41 36 32 47 49 52 53 55 56 58 59 58 57 58 59 59 59 59 59 59 59 58 57 58 59 59 59 60 60 61 62 61 60 61 60 59 61 60 61 61 63 64 64
28 30 26 24 27 26 20 20 25 18 22 19 25 25 16 15 15 21 22 34 42 39 38 44 46 50 52 53 55 56 56 56 57 58 58 58 58 58 58 58 57 57 57 58 59 58 59 60 62 61 61 61 60 60 61 60 60 60 61 62 63 64 64
31 28 26 24 24 23 23 21 20 30 26 28 23 23 27 22 17 19 18 35 31 42 43 45 44 49 52 52 53 55 56 56 57 57 57 57 57 57 57 57 57 57 57 58 57 58 58 59 61 61 61 61 60 60 62 63 63 61 61 62 63 62 62
23 23 28 23 23 21 21 21 23 25 31 28 24 28 24 23 22 20 23 20 26 36 45 47 46 48 52 52 53 54 55 56 56 57 57 57 57 57 57 57 57 57 57 57 58 58 59 60 62 62 60 60 60 60 60 62 61 60 60 61 61 62 63
23 22 28 30 25 22 20 19 19 23 23 24 21 22 27 27 23 19 22 20 25 32 47 49 47 49 51 53 53 54 54 55 56 56 56 56 56 57 57 57 56 56 57 58 57 59 60 60 60 61 61 61 60 60 59 59 59 59 60 61 61 62 62
22 25 26 34 26 25 24 21 21 26 26 25 25 17 22 24 27 32 29 22 24 34 46 50 50 51 51 52 53 53 54 55 55 55 55 56 57 57 56 56 55 55 57 57 57 58 59 60 60 61 62 61 60 60 60 60 59 59 60 61 61 62 62
35 27 30 35 35 28 25 27 28 26 24 26 23 27 30 23 25 23 22 24 24 33 45 52 53 51 52 52 52 53 54 54 55 55 55 55 56 56 56 56 55 56 57 57 58 59 60 60 60 61 61 61 61 60 60 60 59 59 60 61 62 62 62
28 29 32 28 35 34 30 29 33 30 29 27 30 31 31 26 25 26 21 19 22 34 48 51 51 51 51 51 51 53 53 54 55 54 54 55 56 55 55 55 55 56 56 57 58 59 60 60 61 61 61 61 61 61 60 60 60 59 60 61 62 62 62
21 20 21 23 26 27 32 35 32 33 27 25 27 25 25 20 29 28 24 23 28 33 41 47 49 50 50 51 51 51 53 54 54 54 54 55 55 55 55 54 55 55 57 58 58 59 60 60 61 61 61 61 61 61 60 60 60 60 59 60 61 62 61
24 25 29 34 43 33 30 31 32 30 31 32 31 30 26 22 28 26 27 30 27 28 32 42 47 49 49 50 49 50 51 53 54 54 54 54 54 54 54 54 54 56 57 57 58 59 59 59 60 61 61 61 61 61 60 60 60 60 60 60 60 60 60
30 33 35 33 43 30 32 30 30 30 29 29 26 27 28 31 27 24 33 33 30 28 31 40 45 48 49 50 50 49 50 53 54 54 55 58 54 54 54 54 55 56 56 57 57 58 58 59 60 60 60 61 61 60 60 60 60 60 61 61 60 60 59
37 31 32 39 40 34 33 32 29 28 30 31 29 33 35 32 28 27 33 34 33 32 31 32 39 46 48 49 50 49 51 53 54 54 54 54 53 53 53 54 55 56 56 57 57 57 58 59 59 60 60 60 60 60 60 60 60 60 61 60 60 59 59
31 37 36 38 30 30 30 31 30 28 28 28 27 31 35 31 33 33 35 37 34 33 33 33 37 46 48 49 51 51 51 52 54 54 54 54 53 53 53 54 55 56 56 57 57 58 58 59 59 60 60 60 60 60 60 60 60 60 60 60 60 59 58
31 35 38 34 32 33 30 30 31 30 28 28 29 31 34 38 35 35 36 37 36 37 38 36 42 49 49 49 48 48 50 53 54 53 53 53 53 53 54 55 55 56 56 57 57 58 58 59 59 60 60 60 60 60 60 59 59 59 59 59 59 59 58
28 31 32 34 34 33 32 34 35 33 34 33 33 32 38 36 34 37 36 33 35 36 42 49 48 48 47 46 47 48 50 53 54 53 53 53 53 53 54 55 56 56 56 57 57 58 58 59 59 59 59 60 59 59 59 58 58 59 59 59 58 58 59
29 31 36 33 33 31 30 31 31 31 35 33 35 37 42 40 35 33 31 31 35 37 48 47 46 47 47 47 47 48 51 52 53 53 53 53 53 53 54 55 56 56 56 56 57 58 58 59 59 60 60 59 58 59 58 58 58 58 58 58 58 58 58
30 31 38 36 30 26 28 34 35 35 31 32 32 32 34 39 37 35 34 33 39 44 47 46 45 46 46 46 48 49 50 51 53 52 53 53 53 53 54 55 55 56 56 57 57 58 58 59 59 60 61 59 59 59 59 59 58 58 58 58 58 58 58
29 34 34 30 28 28 37 41 41 39 36 35 33 35 36 37 40 42 39 39 40 43 47 47 47 47 48 49 49 50 51 52 52 52 52 52 53 53 54 55 55 56 56 57 57 58 58 59 60 60 60 60 60 59 58 58 58 58 58 58 58 58 58
34 32 31 25 27 34 39 38 41 44 40 39 37 36 38 40 40 42 42 41 43 47 48 48 48 48 49 50 51 51 52 51 51 51 51 51 53 53 54 54 55 55 56 57 57 58 59 60 60 59 59 59 59 58 58 58 58 58 58 58 58 58 57
30 33 30 29 35 34 36 35 35 39 33 34 33 29 33 39 43 44 44 45 46 48 48 49 49 49 49 48 48 51 51 52 51 50 50 50 52 54 55 55 55 56 56 57 57 59 59 59 59 59 59 59 59 59 58 58 58 58 58 58 58 58 59
35 30 28 29 28 28 33 38 39 40 38 36 39 34 34 42 44 46 45 46 47 48 49 49 48 48 46 44 46 49 50 51 51 52 52 52 52 54 54 55 56 56 57 57 58 59 58 59 59 59 60 59 59 59 58 58 58 58 57 57 58 58 58
31 30 26 26 26 29 34 34 34 38 40 38 39 34 31 38 42 45 46 46 48 47 47 47 47 45 43 43 45 48 51 51 50 50 50 50 52 54 54 54 55 56 56 57 58 60 58 58 58 60 60 60 59 59 59 58 58 57 57 57 57 57 57
33 30 26 26 30 29 35 36 38 37 40 41 34 25 28 37 40 46 47 46 48 48 48 47 46 43 42 43 45 47 49 51 51 50 50 51 53 54 54 55 56 56 57 58 59 58 58 58 58 59 60 59 60 59 59 58 58 58 59 59 60 59 59
36 34 29 29 30 38 42 41 37 42 41 36 29 26 29 40 43 46 48 47 48 48 48 47 45 45 46 47 49 49 51 52 53 53 52 51 53 53 54 54 60 56 57 57 57 57 58 59 59 59 60 60 60 61 60 59 59 59 59 60 59 59 59
29 32 28 28 30 35 33 36 40 40 32 28 27 33 38 41 44 47 48 47 48 48 48 46 46 47 48 55 53 51 52 51 52 52 51 52 53 54 57 59 60 55 55 56 57 57 58 59 59 60 60 60 60 59 60 60 60 59 59 59 59 59 58
31 31 29 27 25 34 36 37 38 39 32 31 35 41 45 47 47 47 48 47 47 48 48 48 49 48 49 51 52 52 52 53 53 53 52 52 52 52 53 57 61 56 55 56 56 56 57 58 59 60 60 60 60 60 59 59 59 59 58 58 58 58 58
27 29 27 27 33 35 37 39 34 38 36 39 42 44 45 49 48 47 47 47 48 48 47 46 49 50 49 50 50 51 52 53 54 55 54 53 53 52 52 52 56 61 56 56 56 57 56 57 58 60 60 60 60 60 58 59 59 59 58 58 58 58 59
31 31 33 35 38 39 40 42 42 42 43 47 45 46 45 46 47 48 47 47 49 49 47 48 49 48 49 49 49 50 51 51 51 52 53 53 52 51 52 52 58 61 56 55 56 56 56 57 58 59 59 58 60 60 59 60 59 59 59 58 58 58 57
39 41 38 43 43 43 42 42 47 46 47 48 47 45 45 46 47 48 47 47 49 49 49 47 48 48 49 49 50 50 51 51 51 54 53 52 53 52 53 55 60 60 57 56 55 56 56 57 57 60 59 58 58 59 58 59 60 58 58 58 58 58 57
33 32 39 41 41 43 43 43 45 48 50 51 49 46 46 47 48 48 50 49 49 48 48 47 47 48 49 49 50 52 53 52 51 50 51 51 52 52 53 54 60 58 55 55 55 56 56 56 57 58 59 59 58 59 59 59 58 58 59 59 59 59 58
33 35 38 38 40 43 43 44 45 45 47 49 50 51 50 49 50 50 49 48 48 46 45 46 45 46 49 49 49 49 51 52 51 51 51 51 51 51 53 56 60 56 56 55 56 56 56 55 55 57 58 58 59 59 59 59 58 57 59 59 58 57 57
35 37 37 39 40 41 42 45 46 45 46 47 48 47 47 46 46 47 49 49 44 43 43 48 49 49 51 49 50 49 50 51 51 51 51 51 51 52 55 58 58 56 55 55 55 56 56 56 56 56 57 57 58 59 59 59 57 57 58 61 62 59 57
31 33 38 40 35 36 40 42 43 44 45 45 45 46 45 45 45 46 45 48 50 47 48 49 47 47 49 51 51 51 52 52 52 52 52 53 53 53 55 58 56 56 58 55 55 55 56 57 55 56 56 57 57 57 58 57 57 56 58 59 58 57 56
30 33 35 42 42 41 41 42 44 46 46 44 43 43 44 46 46 46 47 47 48 49 51 52 48 49 51 51 50 50 49 51 52 53 53 53 53 53 55 55 54 54 55 59 57 57 56 56 56 56 56 56 56 57 57 57 56 56 55 57 57 55 56
35 34 36 40 41 38 41 43 46 46 49 48 44 46 46 46 47 48 47 47 47 49 51 52 52 51 50 51 49 48 49 51 52 52 52 52 53 55 55 54 55 56 56 57 57 57 56 56 55 55 55 56 57 57 57 57 57 57 56 56 55 53 53
35 36 38 42 41 41 44 45 48 49 51 50 46 45 46 47 47 48 47 48 49 49 50 50 52 52 50 51 49 49 50 53 54 53 57 58 56 55 55 55 56 56 57 56 56 56 56 56 56 57 56 56 56 57 57 58 57 57 56 56 55 54 54